Location: Krakow
(50.0830°N, 19.9170°E)
Time: 15:47:26
(UTC+01:00)

Altair - All Passes

Search period start: 27 January 2023 00:00
Search period end: 06 February 2023 00:00
Orbit: 1501 x 1683 km, 47.2° (Epoch: 26 January)

Date Brightness Start Highest point End Pass type
(mag) Time Alt. Az. Time Alt. Az. Time Alt. Az.
27 Jan - 01:14:49 10° W 01:24:51 70° SSW 01:34:54 10° ESE visible
27 Jan - 03:19:41 10° WNW 03:28:45 39° SW 03:37:44 10° SSE visible
27 Jan - 05:28:08 10° WSW 05:31:14 12° WSW 05:34:19 10° SW visible
27 Jan - 18:42:42 10° SSE 18:48:09 16° SE 18:53:38 10° E visible
27 Jan - 20:41:44 10° SW 20:50:53 46° SE 21:00:17 10° ENE visible
27 Jan - 22:45:03 10° WSW 22:54:59 74° S 23:05:08 10° E visible
28 Jan - 00:49:36 10° W 00:59:38 71° SSW 01:09:44 10° ESE visible
28 Jan - 02:54:25 10° WNW 03:03:38 41° SW 03:12:46 10° SSE visible
28 Jan - 05:02:00 10° W 05:06:13 13° WSW 05:10:26 10° SSW visible
28 Jan - 18:18:24 10° SSE 18:23:08 15° SE 18:27:55 10° E visible
28 Jan - 20:16:45 10° SSW 20:25:45 43° SE 20:35:02 10° ENE visible
28 Jan - 22:19:53 10° WSW 22:29:47 73° SSE 22:39:54 10° E visible
29 Jan - 00:24:24 10° W 00:34:26 72° SSW 00:44:32 10° ESE night (unlit)
29 Jan - 02:29:10 10° WNW 02:38:30 44° SW 02:47:48 10° SSE visible
29 Jan - 04:36:09 10° W 04:41:13 15° SW 04:46:14 10° SSW visible
29 Jan - 17:54:17 10° SSE 17:58:08 13° ESE 18:02:01 10° E visible
29 Jan - 19:51:47 10° SSW 20:00:38 41° SE 20:09:45 10° ENE visible
29 Jan - 21:54:44 10° WSW 22:04:34 71° SSE 22:14:40 10° E visible
29 Jan - 23:59:11 10° W 00:09:13 74° S 00:19:21 10° ESE night (unlit)
30 Jan - 02:03:56 10° WNW 02:13:22 46° SSW 02:22:47 10° SE visible
30 Jan - 04:10:29 10° W 04:16:11 17° SW 04:21:53 10° SSW visible
30 Jan - 17:30:31 10° SE 17:33:09 11° ESE 17:35:46 10° ESE visible
30 Jan - 19:26:51 10° SSW 19:35:32 38° SE 19:44:29 10° ENE visible
30 Jan - 21:29:35 10° WSW 21:39:22 69° SSE 21:49:26 10° E visible
30 Jan - 23:33:59 10° W 23:43:59 75° S 23:54:08 10° ESE visible
31 Jan - 01:38:41 10° WNW 01:48:13 48° SSW 01:57:45 10° SE visible
31 Jan - 03:44:54 10° W 03:51:09 19° SW 03:57:24 10° SSW visible
31 Jan - 19:01:56 10° SSW 19:10:26 36° SE 19:19:11 10° E visible
31 Jan - 21:04:27 10° WSW 21:14:10 68° SSE 21:24:12 10° E visible
31 Jan - 23:08:47 10° W 23:18:46 76° S 23:28:56 10° ESE visible
01 Feb - 01:13:28 10° WNW 01:23:04 51° SSW 01:32:42 10° SE night (unlit)
01 Feb - 03:19:23 10° W 03:26:07 20° SW 03:32:50 10° S visible
01 Feb - 18:37:03 10° SSW 18:45:20 34° SE 18:53:53 10° E visible
01 Feb - 20:39:19 10° WSW 20:48:59 66° SSE 20:58:57 10° E visible
01 Feb - 22:43:36 10° W 22:53:33 76° S 23:03:42 10° ESE visible
02 Feb - 00:48:15 10° W 00:57:54 53° SSW 01:07:37 10° SE night (unlit)
02 Feb - 02:53:56 10° W 03:01:04 22° SW 03:08:11 10° S visible
02 Feb - 18:12:13 10° SSW 18:20:16 31° SE 18:28:34 10° E visible
02 Feb - 20:14:12 10° WSW 20:23:48 64° SSE 20:33:43 10° E visible
02 Feb - 22:18:24 10° W 22:28:20 77° S 22:38:29 10° E visible
03 Feb - 00:23:02 10° W 00:32:44 56° SSW 00:42:31 10° SE night (unlit)
03 Feb - 02:28:32 10° W 02:36:00 24° SW 02:43:29 10° S night (unlit)
03 Feb - 17:47:24 10° S 17:55:12 29° SE 18:03:14 10° E visible
03 Feb - 19:49:06 10° SW 19:58:37 62° SSE 20:08:29 10° E visible
03 Feb - 21:53:13 10° W 22:03:07 77° S 22:13:15 10° E visible
03 Feb - 23:57:49 10° W 00:07:33 58° SSW 00:17:25 10° SE visible
04 Feb - 02:03:09 10° W 02:10:56 26° SW 02:18:44 10° S night (unlit)
04 Feb - 17:22:37 10° S 17:30:08 27° SE 17:37:52 10° E visible
04 Feb - 19:24:01 10° SW 19:33:27 59° SSE 19:43:14 10° E visible
04 Feb - 21:28:02 10° W 21:37:54 77° S 21:48:02 10° E visible
04 Feb - 23:32:37 10° W 23:42:22 60° SSW 23:52:17 10° SE visible
05 Feb - 01:37:48 10° W 01:45:51 28° SW 01:53:56 10° S night (unlit)
05 Feb - 16:57:53 10° S 17:05:05 25° SE 17:12:29 10° E visible
05 Feb - 18:58:57 10° SW 19:08:18 57° SSE 19:18:00 10° E visible
05 Feb - 21:02:51 10° W 21:12:41 77° S 21:22:48 10° E visible
05 Feb - 23:07:25 10° W 23:17:12 62° SSW 23:27:09 10° SE visible
